Weather History for Eveleth, MN

Change the Weather History Date:

Saturday, March 22, 2014

  Actual Average Record
Temperature  
Mean Temperature 5 °F -  
Max Temperature 12 °F 37 °F 60 °F (2012)
Min Temperature -2 °F 16 °F -4 °F (2013)
Degree Days  
Heating Degree Days 60    
Moisture  
Dew Point -2 °F    
Average Humidity 69    
Maximum Humidity 79    
Minimum Humidity 57    
Precipitation  
Precipitation 0.00 in - - ()
Sea Level Pressure  
Sea Level Pressure 30.29 in    
Wind  
Wind Speed 13 mph (WNW)    
Max Wind Speed 20 mph    
Max Gust Speed 26 mph    
Visibility 10 miles    
Events      
Averages and records for this station are not official NWS values.
T = Trace of Precipitation, MM = Missing Value Source: NWS Daily Summary

Daily Weather History Graph

Daily Weather History Graph

Search for Another Location

Airport:

Trip Planner

Search our weather history database for the weather conditions in past years. The results will help you decide how hot, cold, wet, or windy it might be!

Date:

Astronomy

Mar. 22, 2014 Rise Set
Actual Time 7:08 AM CDT 7:25 PM CDT
Civil Twilight 6:38 AM CDT 7:56 PM CDT
Nautical Twilight 6:02 AM CDT 8:32 PM CDT
Astronomical Twilight 5:24 AM CDT 9:10 PM CDT
Moon 1:04 AM CDT (3/22) 10:32 AM CDT (3/22)
Length of Visible Light 13h 18m
Length of Day
12h 16m
Waning Gibbous, 65% of the Moon is Illuminated
Mar 22
Waning Gibbous
Mar 23
Last Quarter
Mar 30
New
Apr 7
First Quarter
Apr 15
Full

Hourly Weather History & Observations

Time (CDT) Temp. Windchill Dew Point Humidity Pressure Visibility Wind Dir Wind Speed Gust Speed Precip Events Conditions
12:13 AM 12.2 °F -5.3 °F 6.8 °F 79% 30.11 in 10.0 mi NW 18.4 mph - N/A   Mostly Cloudy
12:34 AM 12.2 °F -5.8 °F 6.8 °F 79% 30.12 in 10.0 mi NW 19.6 mph - N/A   Scattered Clouds
12:54 AM 10.4 °F -6.6 °F 3.2 °F 73% 30.12 in 10.0 mi NW 16.1 mph 23.0 mph N/A   Clear
1:13 AM 10.4 °F -7.2 °F 3.2 °F 73% 30.12 in 10.0 mi NW 17.3 mph 26.5 mph N/A   Clear
1:34 AM 8.6 °F -7.0 °F 1.4 °F 73% 30.14 in 10.0 mi NW 12.7 mph 24.2 mph N/A   Clear
1:54 AM 6.8 °F -7.8 °F -0.4 °F 72% 30.15 in 10.0 mi NW 10.4 mph 19.6 mph N/A   Clear
2:13 AM 5.0 °F -10.8 °F -0.4 °F 78% 30.15 in 10.0 mi NW 11.5 mph 23.0 mph N/A   Clear
2:34 AM 5.0 °F -10.8 °F -0.4 °F 78% 30.16 in 10.0 mi WNW 11.5 mph 19.6 mph N/A   Clear
2:54 AM 3.2 °F -14.6 °F -2.2 °F 78% 30.17 in 10.0 mi NW 13.8 mph 20.7 mph N/A   Clear
3:13 AM 3.2 °F -13.9 °F -2.2 °F 78% 30.17 in 10.0 mi WNW 12.7 mph 21.9 mph N/A   Clear
3:34 AM 3.2 °F -12.2 °F -4.0 °F 72% 30.18 in 10.0 mi NW 10.4 mph - N/A   Clear
3:53 AM 3.2 °F -14.6 °F -4.0 °F 72% 30.18 in 10.0 mi NW 13.8 mph 18.4 mph N/A   Clear
4:14 AM 3.2 °F -13.1 °F -4.0 °F 72% 30.19 in 10.0 mi NW 11.5 mph 17.3 mph N/A   Clear
4:33 AM 3.2 °F -13.1 °F -4.0 °F 72% 30.19 in 10.0 mi NW 11.5 mph 16.1 mph N/A   Clear
4:54 AM 1.4 °F -14.5 °F -5.8 °F 72% 30.20 in 10.0 mi NW 10.4 mph 18.4 mph N/A   Clear
5:14 AM -0.4 °F -16.7 °F -5.8 °F 78% 30.21 in 10.0 mi NW 10.4 mph - N/A   Clear
5:33 AM -0.4 °F -18.4 °F -5.8 °F 78% 30.22 in 10.0 mi NW 12.7 mph 17.3 mph N/A   Clear
5:53 AM -0.4 °F -17.6 °F -5.8 °F 78% 30.22 in 10.0 mi NW 11.5 mph - N/A   Clear
6:14 AM -0.4 °F -17.6 °F -5.8 °F 78% 30.23 in 10.0 mi NW 11.5 mph 17.3 mph N/A   Clear
6:33 AM -0.4 °F -17.6 °F -5.8 °F 78% 30.24 in 10.0 mi NW 11.5 mph 16.1 mph N/A   Clear
6:53 AM -0.4 °F -17.6 °F -7.6 °F 72% 30.25 in 10.0 mi NW 11.5 mph - N/A   Clear
7:14 AM -0.4 °F -19.9 °F -7.6 °F 72% 30.26 in 10.0 mi WNW 15.0 mph 18.4 mph N/A   Clear
7:33 AM -2.2 °F -21.5 °F -7.6 °F 78% 30.27 in 10.0 mi NW 13.8 mph 17.3 mph N/A   Clear
7:53 AM -2.2 °F -20.7 °F -7.6 °F 78% 30.27 in 7.0 mi NW 12.7 mph - N/A   Clear
8:14 AM -0.4 °F -18.4 °F -7.6 °F 72% 30.28 in 7.0 mi NW 12.7 mph - N/A   Clear
8:33 AM -0.4 °F -17.6 °F -7.6 °F 72% 30.28 in 5.0 mi WNW 11.5 mph 17.3 mph N/A   Haze
8:53 AM -0.4 °F -19.9 °F -7.6 °F 72% 30.30 in 4.0 mi WNW 15.0 mph - N/A   Haze
9:14 AM -0.4 °F -15.7 °F -7.6 °F 72% 30.31 in 7.0 mi WNW 9.2 mph - N/A   Scattered Clouds
9:33 AM -0.4 °F -17.6 °F -7.6 °F 72% 30.32 in 10.0 mi WNW 11.5 mph - N/A   Clear
9:53 AM 1.4 °F -15.3 °F -5.8 °F 72% 30.32 in 10.0 mi WNW 11.5 mph - N/A   Clear
10:14 AM 3.2 °F -13.1 °F -5.8 °F 66% 30.33 in 10.0 mi WNW 11.5 mph 16.1 mph N/A   Clear
10:34 AM 3.2 °F -11.3 °F -5.8 °F 66% 30.33 in 10.0 mi NW 9.2 mph - N/A   Clear
10:53 AM 5.0 °F -11.6 °F -5.8 °F 61% 30.33 in 10.0 mi NW 12.7 mph 18.4 mph N/A   Clear
11:14 AM 5.0 °F -14.2 °F -4.0 °F 66% 30.33 in 10.0 mi WNW 17.3 mph 21.9 mph N/A   Clear
11:34 AM 6.8 °F -10.0 °F -4.0 °F 61% 30.34 in 10.0 mi NW 13.8 mph 18.4 mph N/A   Scattered Clouds
11:53 AM 8.6 °F -5.5 °F -4.0 °F 57% 30.33 in 10.0 mi NNW 10.4 mph 23.0 mph N/A   Scattered Clouds
12:14 PM 8.6 °F -8.3 °F -2.2 °F 62% 30.34 in 10.0 mi WNW 15.0 mph 20.7 mph N/A   Mostly Cloudy
12:33 PM 10.4 °F -5.4 °F -0.4 °F 62% 30.34 in 10.0 mi NW 13.8 mph 24.2 mph N/A   Mostly Cloudy
12:54 PM 10.4 °F -4.1 °F -0.4 °F 62% 30.34 in 10.0 mi NW 11.5 mph 19.6 mph N/A   Mostly Cloudy
1:13 PM 10.4 °F -4.8 °F -0.4 °F 62% 30.34 in 7.0 mi NW 12.7 mph - N/A   Mostly Cloudy
1:33 PM 10.4 °F -4.1 °F -0.4 °F 62% 30.34 in 10.0 mi WNW 11.5 mph 19.6 mph N/A   Mostly Cloudy
1:54 PM 12.2 °F -3.7 °F 1.4 °F 62% 30.34 in 10.0 mi NW 15.0 mph - N/A   Scattered Clouds
2:13 PM 12.2 °F -1.0 °F 1.4 °F 62% 30.34 in 10.0 mi NW 10.4 mph 19.6 mph N/A   Scattered Clouds
2:33 PM 12.2 °F -1.0 °F 1.4 °F 62% 30.34 in 10.0 mi NW 10.4 mph - N/A   Scattered Clouds
2:54 PM 12.2 °F -1.8 °F 1.4 °F 62% 30.33 in 10.0 mi WNW 11.5 mph 17.3 mph N/A   Scattered Clouds
3:13 PM 12.2 °F -2.5 °F 1.4 °F 62% 30.33 in 4.0 mi NW 12.7 mph 24.2 mph N/A   Haze
3:33 PM 12.2 °F -2.5 °F 3.2 °F 67% 30.33 in 10.0 mi WNW 12.7 mph - N/A   Mostly Cloudy
3:54 PM 12.2 °F -3.1 °F 1.4 °F 62% 30.33 in 10.0 mi WNW 13.8 mph 23.0 mph N/A   Overcast
4:14 PM 12.2 °F -2.5 °F 3.2 °F 67% 30.34 in 10.0 mi WNW 12.7 mph 23.0 mph N/A   Overcast
4:33 PM 12.2 °F -0.2 °F 3.2 °F 67% 30.34 in 10.0 mi WNW 9.2 mph - N/A   Overcast
4:54 PM 12.2 °F -2.5 °F 1.4 °F 62% 30.34 in 10.0 mi NW 12.7 mph 18.4 mph N/A   Overcast
5:14 PM 12.2 °F -2.5 °F 1.4 °F 62% 30.34 in 10.0 mi WNW 12.7 mph - N/A   Overcast
5:33 PM 12.2 °F -2.5 °F 1.4 °F 62% 30.34 in 10.0 mi NW 12.7 mph 18.4 mph N/A   Mostly Cloudy
5:54 PM 12.2 °F -0.2 °F 1.4 °F 62% 30.34 in 10.0 mi NW 9.2 mph - N/A   Scattered Clouds
6:14 PM 12.2 °F 0.7 °F 1.4 °F 62% 30.34 in 10.0 mi NW 8.1 mph - N/A   Scattered Clouds
6:33 PM 12.2 °F -1.0 °F -0.4 °F 57% 30.34 in 10.0 mi NW 10.4 mph - N/A   Scattered Clouds
6:54 PM 12.2 °F -1.0 °F -0.4 °F 57% 30.35 in 10.0 mi WNW 10.4 mph - N/A   Clear
7:14 PM 12.2 °F 1.7 °F -0.4 °F 57% 30.35 in 10.0 mi WNW 6.9 mph - N/A   Clear
7:33 PM 12.2 °F 1.7 °F 1.4 °F 62% 30.35 in 10.0 mi WNW 6.9 mph - N/A   Clear
7:54 PM 10.4 °F 0.8 °F -0.4 °F 62% 30.35 in 10.0 mi WNW 5.8 mph - N/A   Clear
8:14 PM 10.4 °F 0.8 °F -0.4 °F 62% 30.36 in 10.0 mi WNW 5.8 mph - N/A   Clear
8:33 PM 10.4 °F 2.2 °F -0.4 °F 62% 30.37 in 10.0 mi West 4.6 mph - N/A   Clear
8:54 PM 8.6 °F 2.0 °F -2.2 °F 62% 30.37 in 10.0 mi West 3.5 mph - N/A   Clear
9:13 PM 8.6 °F 2.0 °F -0.4 °F 67% 30.38 in 10.0 mi West 3.5 mph - N/A   Clear
9:34 PM 6.8 °F -2.0 °F -0.4 °F 72% 30.38 in 10.0 mi West 4.6 mph - N/A   Scattered Clouds
9:53 PM 5.0 °F -4.1 °F -0.4 °F 78% 30.38 in 10.0 mi West 4.6 mph - N/A   Clear
10:13 PM 5.0 °F -4.1 °F -0.4 °F 78% 30.39 in 10.0 mi West 4.6 mph - N/A   Clear
10:34 PM 5.0 °F -5.6 °F -0.4 °F 78% 30.39 in 10.0 mi West 5.8 mph - N/A   Clear
10:53 PM 5.0 °F -5.6 °F -2.2 °F 72% 30.39 in 10.0 mi West 5.8 mph - N/A   Clear
11:13 PM 5.0 °F -8.1 °F -2.2 °F 72% 30.39 in 10.0 mi West 8.1 mph - N/A   Clear
11:34 PM 3.2 °F -10.3 °F -4.0 °F 72% 30.39 in 10.0 mi West 8.1 mph - N/A   Clear
11:53 PM 3.2 °F -11.3 °F -4.0 °F 72% 30.39 in 10.0 mi WNW 9.2 mph - N/A   Clear